Location: Asheville, NC
(35.6000°N, 82.5500°W)
Time: 17:24:36

Tiangong 2 - Pass Details

Date: 12 March 2018
Orbit: 383 x 388 km, 42.8° (Epoch: 18 March)

Event Time Altitude Azimuth Distance (km) Brightness Sun altitude
Exits shadow 06:10:34 39° 161° (SSE) 595 2.0 -20.0°
Maximum altitude 06:10:49 39° 147° (SSE) 586 2.1 -19.9°
Drops below altitude 10° 06:13:48 10° 76° (ENE) 1,407 5.1 -19.3°
Sets 06:15:57 0° 69° (ENE) 2,264 6.5 -18.9°
